Location: Corcelles
(46.1547°N, 4.7234°E)
Time: 08:45:57
(UTC+00:00)

Cosmos 2360 - Pass Details

Date: 14 July 2020
Orbit: 844 x 858 km, 70.8° (Epoch: 14 August)

Event Time Altitude Azimuth Distance (km) Brightness Sun altitude
Rises 02:35:03 0° 328° (NNW) 3,441 7.6 -12.3°
Reaches altitude 10° 02:37:35 10° 323° (NW) 2,501 6.8 -12.0°
Maximum altitude 02:43:03 47° 251° (WSW) 1,120 4.5 -11.4°
Drops below altitude 10° 02:48:31 10° 179° (S) 2,484 6.2 -10.8°
Sets 02:51:02 0° 174° (S) 3,415 7.0 -10.5°
